Weather History for KALN - July, 2013

Change the Weather History Date:

Thursday, July 18, 2013

  Actual Average Record
Temperature  
Mean Temperature 82 °F -  
Max Temperature 92 °F 85 °F 102 °F (2012)
Min Temperature 72 °F 68 °F 39 °F (2005)
Cooling Degree Days 16    
Growing Degree Days 32 (Base 50)    
Moisture  
Dew Point 73 °F    
Average Humidity 83    
Maximum Humidity 97    
Minimum Humidity 46    
Precipitation  
Precipitation 0.00 in - - ()
Sea Level Pressure  
Sea Level Pressure 30.15 in    
Wind  
Wind Speed 1 mph (SSE)    
Max Wind Speed 6 mph    
Max Gust Speed -    
Visibility 7 miles    
Events Fog    
Averages and records for this station are not official NWS values.
T = Trace of Precipitation, MM = Missing Value Source: NWS Daily Summary

Daily Weather History Graph

Daily Weather History Graph

Search for Another Location

Airport or City:

Trip Planner

Search our weather history database for the weather conditions in past years. The results will help you decide how hot, cold, wet, or windy it might be!

Date:

Astronomy

Jul. 18, 2013 Rise Set
Actual Time 5:49 AM CDT 8:22 PM CDT
Civil Twilight 5:18 AM CDT 8:53 PM CDT
Nautical Twilight 4:40 AM CDT 9:31 PM CDT
Astronomical Twilight 3:57 AM CDT 10:14 PM CDT
Moon 4:20 PM CDT (7/18) 1:39 AM CDT (7/18)
Length of Visible Light 15h 34m
Length of Day
14h 33m
Waxing Gibbous, 77% of the Moon is Illuminated
Jul 18
Waxing Gibbous
Jul 22
Full
Jul 29
Last Quarter
Aug 6
New
Aug 14
First Quarter

Hourly Weather History & Observations

Time (CDT) Temp. Heat Index Dew Point Humidity Pressure Visibility Wind Dir Wind Speed Gust Speed Precip Events Conditions
12:15 AM 75.7 °F - 73.8 °F 94% 30.23 in 7.0 mi Calm Calm - N/A   Clear
12:35 AM 76.1 °F - 74.3 °F 94% 30.23 in 7.0 mi Calm Calm - N/A   Clear
12:55 AM 76.1 °F - 74.3 °F 94% 30.23 in 7.0 mi Calm Calm - N/A   Clear
1:15 AM 75.7 °F - 74.1 °F 95% 30.22 in 7.0 mi Calm Calm - N/A   Clear
1:35 AM 75.7 °F - 73.8 °F 94% 30.22 in 7.0 mi Calm Calm - N/A   Clear
1:55 AM 74.3 °F - 72.7 °F 95% 30.22 in 5.0 mi Calm Calm - N/A   Clear
2:15 AM 74.7 °F - 73.2 °F 95% 30.21 in 4.0 mi Calm Calm - N/A   Clear
2:35 AM 74.8 °F - 73.4 °F 95% 30.20 in 7.0 mi Calm Calm - N/A   Clear
2:55 AM 74.3 °F - 72.7 °F 95% 30.20 in 5.0 mi Calm Calm - N/A   Clear
3:15 AM 73.8 °F - 72.1 °F 95% 30.20 in 4.0 mi Calm Calm - N/A   Clear
3:35 AM 73.6 °F - 72.5 °F 96% 30.19 in 3.0 mi Calm Calm - N/A   Clear
3:55 AM 73.0 °F - 71.8 °F 96% 30.19 in 4.0 mi Calm Calm - N/A   Clear
4:15 AM 73.4 °F - 72.1 °F 96% 30.19 in 3.0 mi Calm Calm - N/A   Clear
4:35 AM 73.0 °F - 72.0 °F 96% 30.19 in 2.5 mi Calm Calm - N/A   Clear
4:55 AM 72.5 °F - 71.4 °F 96% 30.19 in 2.0 mi Calm Calm - N/A   Clear
5:15 AM 72.9 °F - 72.0 °F 97% 30.19 in 3.0 mi Calm Calm - N/A   Clear
5:35 AM 72.5 °F - 71.6 °F 97% 30.19 in 4.0 mi Calm Calm - N/A   Clear
5:55 AM 72.3 °F - 71.4 °F 97% 30.19 in 1.0 mi Calm Calm - N/A   Mist
6:15 AM 72.5 °F - 71.6 °F 97% 30.20 in 0.2 mi Calm Calm - N/A Fog Fog
6:35 AM 73.8 °F - 72.9 °F 97% 30.20 in 0.8 mi Calm Calm - N/A   Mist
6:50 AM 75.2 °F - 73.4 °F 94% 30.20 in 6.0 mi Calm Calm - N/A   Scattered Clouds
6:55 AM 75.4 °F - 74.5 °F 97% 30.20 in 3.0 mi Calm Calm - N/A   Clear
7:51 AM 78.8 °F - 75.2 °F 89% 30.21 in 7.0 mi SE 4.6 mph - N/A   Scattered Clouds
8:47 AM 84.2 °F 92.3 °F 75.2 °F 74% 30.20 in 10.0 mi SE 3.5 mph - N/A   Partly Cloudy
9:52 AM 86.0 °F 93.4 °F 73.4 °F 66% 30.19 in 10.0 mi Calm Calm - N/A   Partly Cloudy
10:50 AM 89.6 °F 94.7 °F 69.8 °F 52% 30.19 in 10.0 mi SSE 4.6 mph - N/A   Partly Cloudy
11:49 AM 89.6 °F 96.2 °F 71.6 °F 55% 30.18 in 10.0 mi SSE 4.6 mph - N/A   Scattered Clouds
2:45 PM 91.4 °F 95.4 °F 68.0 °F 46% 30.10 in 10.0 mi Variable 3.5 mph - N/A   Scattered Clouds
3:45 PM 86.0 °F 95.1 °F 75.2 °F 70% 30.07 in 10.0 mi Calm Calm - N/A   Scattered Clouds
4:50 PM 89.6 °F 94.7 °F 69.8 °F 52% 30.07 in 10.0 mi Variable 3.5 mph - N/A   Scattered Clouds
5:45 PM 89.6 °F 96.2 °F 71.6 °F 55% 30.05 in 10.0 mi Variable 3.5 mph - N/A   Partly Cloudy
6:45 PM 89.6 °F 98.2 °F 73.4 °F 59% 30.04 in 10.0 mi Calm Calm - N/A   Clear
7:45 PM 86.0 °F 96.9 °F 77.0 °F 74% 30.05 in 10.0 mi Calm Calm - N/A   Clear
8:45 PM 82.4 °F 90.9 °F 77.0 °F 84% 30.04 in 10.0 mi Calm Calm - N/A   Clear
9:45 PM 80.6 °F 85.4 °F 73.4 °F 79% 30.05 in 10.0 mi Calm Calm - N/A   Clear
10:15 PM 82.4 °F 87.7 °F 72.5 °F 72% 30.05 in 10.0 mi South 5.8 mph - N/A   Clear
10:35 PM 82.0 °F 87.2 °F 72.5 °F 73% 30.04 in 10.0 mi South 5.8 mph - N/A   Clear
10:55 PM 80.4 °F 84.7 °F 72.5 °F 77% 30.04 in 10.0 mi South 4.6 mph - N/A   Clear
11:15 PM 80.1 °F 84.1 °F 72.5 °F 78% 30.04 in 10.0 mi South 5.8 mph - N/A   Clear
11:35 PM 79.5 °F - 72.7 °F 79% 30.04 in 10.0 mi SSW 5.8 mph - N/A   Clear
11:55 PM 79.3 °F - 72.9 °F 80% 30.04 in 10.0 mi South 5.8 mph - N/A   Clear